Location: Courçay
(47.2523°N, 0.8761°E)
Time: 00:52:59
(UTC+00:00)

Cosmos 1634 Rocket - Pass Details

Date: 18 November 2025
Orbit: 958 x 992 km, 82.9° (Epoch: 05 December)

Event Time Altitude Azimuth Distance (km) Brightness Sun altitude
Rises 19:26:15 0° 196° (SSW) 3,679 7.1 -31.7°
Reaches altitude 10° 19:28:47 10° 199° (SSW) 2,731 6.5 -32.2°
Enters shadow 19:34:52 66° 274° (W) 1,065 4.2 -33.2°
Exits shadow 19:42:27 - 6° (N) 3,178 6.7 -34.5°
Sets 19:43:46 0° 7° (N) 3,672 7.0 -34.7°
